Location: Niedergestelen
(46.3129°N, 7.7822°E)
Time: 12:51:43
(UTC+00:00)

Cosmos 2056 Rocket - Pass Details

Date: 13 April 2021
Orbit: 742 x 800 km, 74.0° (Epoch: 05 May)

Event Time Altitude Azimuth Distance (km) Brightness Sun altitude
Rises 19:19:48 0° 317° (NW) 3,192 8.2 -11.5°
Reaches altitude 10° 19:24:19 10° 280° (W) 2,267 7.2 -12.2°
Maximum altitude 19:25:21 11° 268° (W) 2,228 6.9 -12.3°
Drops below altitude 10° 19:26:22 10° 257° (WSW) 2,268 6.7 -12.5°
Sets 19:30:55 0° 219° (SW) 3,197 6.9 -13.2°
